Location: ActonStarParty
(42.4766°N, 71.4538°W)
Time: 12:44:40
(UTC-04:00)

Daily predictions for brighter satellites

Satellite Brightness Start Highest point End
(mag) Time Altitude Azimuth Time Altitude Azimuth Time Altitude Azimuth
Cosmos 1606 4.3 20:42:39 10° NNE 20:45:27 19° ENE 20:48:15 10° ESE
Lacrosse 5 rocket 1.5 20:43:38 10° SSW 20:46:55 35° SE 20:50:15 10° ENE
Cosmos 1346 Rocket 2.8 20:44:09 10° N 20:48:07 73° ENE 20:52:07 10° SSE
Shenzhou-11 Module 3.2 20:47:59 10° W 20:50:47 32° SSW 20:53:35 10° SE
ATLAS 5 CENTAUR R/B 3.3 20:47:58 10° NNW 20:53:23 36° NE 20:59:15 10° ESE
YAOGAN 6 2.7 20:50:39 10° SSE 20:54:17 60° ENE 20:57:56 10° N
Cosmos 2346 Rocket 4.4 20:48:44 10° S 20:54:44 74° E 21:00:48 10° NNE
Cosmos 1939 Rocket 3.0 20:51:15 10° SSE 20:55:24 87° WSW 20:59:33 10° NNW
Aureole 1 4.4 20:54:24 10° S 20:57:20 51° ESE 21:00:42 10° NNE
Okean 1-7 3.5 20:57:19 10° N 21:01:34 44° ENE 21:05:46 10° SSE
Cosmos 1937 Rocket 4.1 20:57:20 10° SSW 21:02:24 60° WNW 21:07:31 10° NNE
Aureole 3 3.4 21:00:16 10° SSE 21:03:01 32° E 21:05:44 10° NNE
H-2A ROCKET BODY 3.6 21:01:30 10° S 21:03:10 12° SSE 21:05:25 10° SE
GPS 2-04 Rocket1 3.6 21:01:48 10° WSW 21:05:03 28° S 21:07:35 13° SE
H-2A R/B 3.5 21:01:32 10° ESE 21:05:48 24° ENE 21:10:01 10° NNE
SAR-Lupe-1 4.4 21:04:47 11° SSE 21:08:07 48° ENE 21:11:34 10° N
Cosmos 158 Rocket 4.5 21:04:21 10° N 21:08:58 40° ENE 21:12:56 13° SE
ARGOS 3.8 21:06:05 11° SE 21:10:47 39° ENE 21:15:44 10° N
Meteor 1-29 2.9 21:09:47 10° NNE 21:13:17 70° ESE 21:16:45 10° S
DNEPR-1 R/B 4.1 21:08:21 10° S 21:13:23 43° ESE 21:17:43 10° NE
Cosmos 1703 Rocket 3.6 21:09:46 10° N 21:14:13 90° WSW 21:18:35 10° S
Meteor 2-3 Rocket 4.2 21:14:13 10° SSW 21:19:54 66° WNW 21:25:33 10° N
Cosmos 1408 2.9 21:18:09 10° S 21:21:45 49° E 21:25:22 10° NNE
Milstar 3 4.3 21:15:01 10° SW 21:24:43 28° S 21:29:45 16° SE
Cosmos 1782 2.8 21:21:59 10° N 21:25:59 68° E 21:29:11 15° SSE
Cosmos 1733 Rocket 4.2 21:24:43 17° SE 21:26:48 25° E 21:30:19 10° NE
ERS-1 Rocket 2.9 21:23:31 11° SSE 21:28:19 81° ENE 21:33:23 10° NNW
Cosmos 1825 2.1 21:28:21 11° S 21:31:59 63° E 21:35:44 10° NNE
SL-08 RB Rocket 4.3 21:28:54 18° SE 21:32:05 45° ENE 21:36:32 10° N
Cosmos 2344 3.8 21:25:01 10° S 21:32:14 47° ESE 21:40:03 10° NE
Cosmos 1869 Rocket 3.7 21:29:15 10° SSW 21:33:34 75° W 21:37:57 10° N
BREEZE-M DEB (TANK) 3.5 21:32:33 10° NW 21:35:32 57° NNE 21:46:24 10° ESE
Cosmos 1048 Rocket 4.0 21:30:33 10° NNW 21:35:53 71° ENE 21:39:39 19° SSE
Helios 1B rocket 3.4 21:32:34 10° N 21:36:34 50° WNW 21:40:31 10° SSW
Cosmos 2084 3.9 21:34:56 10° NW 21:38:37 46° WSW 21:41:16 18° S
USA 215 3.3 21:35:07 17° SE 21:40:22 83° NE 21:46:58 10° NW
MetOp-A 4.2 21:40:51 15° SSE 21:45:25 85° WSW 21:50:49 10° NNW
Cosmos 1862 3.5 21:43:53 22° SSE 21:46:11 51° E 21:50:04 10° NNE
Lacrosse 4 Rocket 1.7 21:42:38 10° NNW 21:47:07 61° ENE 21:49:28 26° SE
Cosmos 2221 Rocket 4.2 21:44:25 10° NNW 21:48:45 54° W 21:52:52 11° S
ISS -2.5 21:50:27 10° W 21:53:33 41° NNW 21:56:41 10° NE
Cosmos 1943 Rocket 2.1 21:48:05 10° SSW 21:53:42 90° ESE 21:59:17 10° NNE
Terra 2.9 21:54:15 22° ESE 21:56:12 30° ENE 22:00:19 10° N
deb Kosmos-1763 4.4 21:56:13 10° NNW 21:59:59 65° WSW 22:01:44 29° S
Cosmos 1674 Rocket 3.9 21:58:53 10° N 22:03:04 46° ENE 22:04:29 33° SE
Tiangong 2 3.3 22:01:28 10° WSW 22:03:21 15° SSW 22:03:23 15° SSW
SPOT 1/Viking Rocket 3.5 22:00:52 26° SSE 22:03:48 73° ENE 22:09:01 10° N
CENTAUR R/B 2.7 22:00:20 10° SW 22:06:22 76° NW 22:13:18 10° NNE
Cosmos 372 Rocket 4.2 22:01:31 10° SSW 22:06:38 71° WNW 22:11:45 10° NNE
Cosmos 1340 3.0 22:03:07 10° NNW 22:06:53 60° W 22:08:45 27° SSW
Cosmos 1437 3.7 22:07:29 10° N 22:10:20 31° ENE 22:10:20 31° ENE
Cosmos 1092 Rocket 4.2 22:07:21 27° SSE 22:10:28 50° E 22:16:22 10° NNE
BREEZE M DEB (TANK) 3.9 21:58:51 10° WSW 22:10:39 85° NNW 22:14:13 10° ENE
Nadezhda 4 Rocket 3.9 22:06:49 19° S 22:11:19 73° E 22:17:28 10° NNE
SPOT 5 3.2 22:08:10 22° S 22:11:39 73° WSW 22:16:58 10° NNW
Cosmos 1269 Rocket 4.3 22:06:37 10° NNW 22:11:51 62° WSW 22:14:56 24° S
COSMOS 2455 4.3 22:06:26 10° WSW 22:12:02 39° NW 22:17:40 10° NNE
Cosmos 2369 Rocket 3.7 22:10:22 10° SW 22:15:34 37° WNW 22:20:51 10° N
GEOS 3 Rocket 4.0 22:13:40 27° ESE 22:16:14 53° NE 22:21:21 10° NNW
Cosmos 1125 Rocket 4.5 22:12:12 10° SW 22:17:15 48° WNW 22:22:20 10° N
H-2A R/B 3.2 22:16:51 26° E 22:17:35 27° ENE 22:21:05 10° N
Cosmos 1833 4.3 22:15:24 10° NNW 22:21:11 73° WSW 22:24:01 31° S
Lacrosse 5 rocket 3.2 22:22:59 10° W 22:26:08 28° NNW 22:29:22 10° NNE
Okean 3 3.7 22:22:35 10° N 22:26:41 50° E 22:27:17 46° ESE
IGS 5A 3.6 22:29:14 49° ESE 22:29:57 58° ENE 22:34:03 10° N
Cosmos 2297 Rocket 4.1 22:29:41 10° N 22:33:34 19° NE 22:36:27 13° E
ATLAS 5 CENTAUR R/B 3.0 22:32:28 10° NW 22:38:19 50° WSW 22:41:08 31° S
Cosmos 1908 Rocket 3.5 22:38:32 56° SE 22:39:15 67° E 22:43:40 10° NNE
Cosmos 1867 3.5 22:34:55 10° NNW 22:40:24 79° ENE 22:42:05 46° SE
H-2A R/B 2.8 22:42:09 26° SSW 22:44:54 48° W 22:50:04 10° NNW
Okean 2 Rocket 4.1 22:48:28 31° ENE 22:48:28 31° ENE 22:51:56 10° NNE
Cosmos 494 Rocket 3.9 22:42:46 10° NNW 22:48:01 81° WSW 22:49:23 50° S
Cosmos 1656 Rocket 3.9 22:48:00 16° SW 22:52:22 68° WNW 22:57:54 10° NNE
deb Chang Zheng 4 3.7 22:55:46 10° NNE 23:00:03 61° E 23:00:03 61° E
Cosmos 2195 Rocket 4.4 22:58:09 41° S 23:00:35 84° E 23:06:57 10° N
Meteor 1-20 Rocket 4.3 23:01:57 52° SE 23:02:58 60° E 23:08:35 10° NNE
CZ-4B R/B 3.6 23:00:20 10° NNE 23:05:09 53° E 23:05:09 53° E
Cosmos 1782 Rocket 3.4 23:06:37 77° E 23:06:37 77° E 23:10:59 10° N
APEX 4.5 23:04:05 10° N 23:08:11 33° NE 23:08:14 33° NE
Meteor 1-25 Rocket 4.2 23:07:14 54° SSE 23:08:33 75° E 23:14:23 10° NNE
Sich 1 Rocket 4.0 23:12:21 48° WSW 23:13:09 56° W 23:17:30 10° N
Cosmos 1655 Rocket 3.9 23:13:17 53° SSE 23:14:47 74° E 23:21:01 10° NNE
CZ-2C R/B 3.5 23:18:52 10° NNE 23:22:59 33° E 23:22:59 33° E
Cosmos 2227 Rocket 2.7 23:18:11 10° NNW 23:23:40 49° ENE 23:24:44 43° E
USA 215 4.3 23:22:28 26° SW 23:23:47 28° SW 23:29:17 10° WNW
Lacrosse 4 Rocket 3.8 23:22:57 10° WNW 23:25:18 14° WSW 23:25:48 14° WSW
Cosmos 1975 Rocket 3.2 23:23:41 10° NNW 23:28:04 68° W 23:28:04 68° W
Cosmos 2219 3.5 23:23:53 10° NNW 23:29:30 55° WSW 23:30:23 50° SW
Cosmos 2026 Rocket 4.2 23:28:05 41° SSW 23:30:12 67° W 23:36:28 10° N
ISS -0.8 23:28:23 10° NW 23:30:40 17° N 23:32:56 10° NE
Cosmos 1633 4.0 23:33:17 34° NNE 23:33:17 34° NNE 23:35:25 10° NNE
ALOS 2 3.9 23:32:47 31° ENE 23:32:47 31° ENE 23:36:24 10° N
CZ-4C R/B 4.4 23:27:09 10° NNW 23:33:01 28° NE 23:39:22 10° E
Cosmos 1812 3.8 23:30:09 10° NNW 23:33:20 40° WNW 23:33:20 40° WNW
Terra 3.1 23:33:08 29° WSW 23:33:52 30° W 23:38:04 10° NW
ATLAS CENTAUR R/B 2.1 23:36:09 48° NW 23:36:09 48° NW 23:39:48 10° NNE
BREEZE-M DEB (TANK) 3.6 23:36:03 46° SW 23:37:40 79° SE 23:53:28 10° ENE
Cosmos 2151 Rocket 4.1 23:44:35 52° NE 23:44:35 52° NE 23:48:09 10° NNE
Meteor 1-11 Rocket 4.1 23:43:43 51° ESE 23:43:56 51° E 23:49:42 10° NNE
Gbstr 26 Del rocket 3.6 23:40:31 10° NW 23:44:06 49° N 23:44:06 49° N
ARGOS Delta rocket 4.1 23:41:45 10° N 23:46:08 55° WNW 23:46:12 55° WNW
Cosmos 2369 3.9 23:46:56 56° E 23:46:56 56° E 23:52:11 10° NNE
CZ-4C R/B 4.1 23:50:08 51° WNW 23:50:08 51° WNW 23:53:37 10° NNW
Cosmos 1980 Rocket 4.1 23:51:05 17° E 23:51:05 17° E 23:53:26 10° ENE
Meteor 2-4 Rocket 4.0 23:45:52 10° N 23:51:03 48° ENE 23:51:11 48° E
Cosmos 1536 Rocket 4.1 23:47:25 10° N 23:51:02 54° NNE 23:51:02 54° NNE
S3M 3.9 23:45:53 10° N 23:52:00 75° W 23:52:56 63° SSW
H-2A R/B 3.7 23:53:59 24° W 23:53:59 24° W 23:56:58 10° NW
Okean 1 4.5 23:51:55 10° NNW 23:54:53 39° NW 23:54:53 39° NW
